This is the latest recevied weather packets stored in our database for station/object N5XL. If no packets are shown the sender has not sent any weather packets the latest 10 day(s).
| Time | Temp. | Humidity | Pressure | Rain* | Wind** | Luminosity | Snow |
|---|---|---|---|---|---|---|---|
| 1777599904 | 30° C | 13% | 1005 hPa | 0 mm | - | 11 W/m² | - |
| 1777597745 | 30.56° C | 12% | 1004.7 hPa | 0 mm | - | 46 W/m² | - |
| 1777597204 | 30.56° C | 12% | 1004.6 hPa | 0 mm | - | 55 W/m² | - |
| 1777596304 | 31.11° C | 12% | 1004.7 hPa | 0 mm | - | 73 W/m² | - |
| 1777594143 | 31.11° C | 11% | 1004.6 hPa | 0 mm | - | 132 W/m² | - |
| 1777591623 | 31.67° C | 11% | 1004.6 hPa | 0 mm | - | 187 W/m² | - |
| 1777590544 | 32.22° C | 11% | 1005.1 hPa | 0 mm | - | 248 W/m² | - |
| 1777589644 | 32.78° C | 11% | 1005 hPa | 0 mm | - | 283 W/m² | - |
| 1777588023 | 32.22° C | 11% | 1005.5 hPa | 0 mm | - | 430 W/m² | - |
| 1777586403 | 32.22° C | 10% | 1006.1 hPa | 0 mm | - | 529 W/m² | - |
| 1777585503 | 32.22° C | 10% | 1006.2 hPa | 0 mm | - | 514 W/m² | - |
| 1777580824 | 33.89° C | 12% | 1007.4 hPa | 0 mm | - | 488 W/m² | - |
| 1777578303 | 32.22° C | 11% | 1008 hPa | 0 mm | - | 872 W/m² | - |
| 1777573624 | 31.67° C | 16% | 1009.2 hPa | 0 mm | - | 944 W/m² | - |
| 1777568943 | 28.89° C | 16% | 1010.4 hPa | 0 mm | - | 686 W/m² | - |
| 1777565883 | 27.78° C | 20% | 1010.7 hPa | 0 mm | - | 549 W/m² | - |
| 1777564803 | 27.22° C | 21% | 1010.5 hPa | 0 mm | - | 495 W/m² | - |
| 1777563903 | 26.67° C | 22% | 1010.5 hPa | 0 mm | - | 442 W/m² | - |
| 1777561225 | 22.78° C | 26% | 1011.1 hPa | 0 mm | - | 188 W/m² | - |
| 1777560844 | 21.67° C | 27% | 1011.2 hPa | 0 mm | - | 271 W/m² | - |
| 1777557243 | 17.78° C | 29% | 1011 hPa | 0 mm | - | 57 W/m² | - |
| 1777553664 | 17.22° C | 26% | 1010.7 hPa | 0 mm | - | 6 W/m² | - |
| 1777552044 | 17.78° C | 26% | 1010.6 hPa | 0 mm | - | 0 W/m² | - |
| 1777550944 | 18.33° C | 24% | 1010.4 hPa | 0 mm | - | 0 W/m² | - |
| 1777550043 | 18.33° C | 24% | 1010.5 hPa | 0 mm | - | 0 W/m² | - |
* Rain latest hour (hover to see other rain measurements)
** Current wind speed in m/s (hover to see current wind gust speed)